Home > Weather > Aarau > Past weeks

Flag for Switzerland Weather for the Past 2 Weeks in Aarau, Aargau, Switzerland

Now
39 °F

Chilly.


Feels Like: 36 °F
Forecast: 39 / 44 °F
Wind: 3 mph from South

Location: Wynau

Current Time: Feb 13, 2016 at 10:02:54 AM

Latest Report: Feb 13, 2016 at 9:00 AM


Visibility: N/A

Pressure: 29.41 "Hg

Humidity: 94%

Dew point: 37 °F

Location of AarauLocation

Historic Weather in Aarau — Graph

°F

Aarau Temperature Yesterday

Maximum temperature yesterday: 40 °F (at 2:00 PM)
Minimum temperature yesterday: 33 °F (at 7:00 PM)
Average temperature yesterday: 36 °F

High & Low Weather Summary for the Past Weeks

 TemperatureHumidityPressure
High56 °F (Feb 1, 3:00 PM)100% (Jan 29, 8:00 AM)30.53 "Hg (Jan 29, 8:00 AM)
Low30 °F (Jan 30, 7:00 AM)45% (Jan 30, 3:00 PM)29.35 "Hg (Feb 9, 6:00 PM)
Average41 °F85%30.03 "Hg
* Reported Jan 29 8:00 AM — Feb 13 8:00 AM, Aarau, Weather by CustomWeather, © 2016

Note: Actual official high and low records may vary slightly from our data, if they occured in-between our weather recording intervals... More about our weather records

Advertising

Aarau Weather History for the Previous 24 Hours

 ConditionsComfort  
Time TempWeatherWind HumidityBarometerVisibility
8:00 AM
Sat, Feb 13
38 °FChilly.5 mph97%29.41 "HgN/A
7:00 AM38 °FChilly.6 mph95%29.41 "HgN/A
6:00 AM38 °FChilly.8 mph97%29.44 "HgN/A
5:00 AM38 °FChilly.9 mph95%29.44 "HgN/A
4:00 AM37 °FChilly.7 mph96%29.44 "HgN/A
9:00 PM
Fri, Feb 12
34 °FChilly.3 mph97%29.41 "HgN/A
8:00 PM33 °FChilly.3 mph95%29.41 "HgN/A
7:00 PM33 °FChilly.1 mph96%29.41 "HgN/A
6:00 PM33 °FChilly.1 mph97%29.41 "HgN/A
5:00 PM34 °FChilly.1 mph95%29.41 "HgN/A
4:00 PM37 °FChilly.2 mph89%29.41 "HgN/A
3:00 PM40 °FChilly.6 mph68%29.38 "HgN/A
2:00 PM40 °FQuite cool.7 mph76%29.41 "HgN/A
1:00 PM40 °FChilly.2 mph72%29.47 "HgN/A
12:00 PM39 °FChilly.1 mph73%29.54 "HgN/A
11:00 AM38 °FChilly.2 mph76%29.59 "HgN/A
10:00 AM37 °FChilly.1 mph88%29.62 "HgN/A
Weather by CustomWeather, © 2016

See weather overviewHow to use our weather pages